TimeAKDT,TemperatureF,Dew PointF,Humidity,Sea Level PressureIn,VisibilityMPH,Wind Direction,Wind SpeedMPH,Gust SpeedMPH,PrecipitationIn,Events,Conditions,WindDirDegrees,DateUTC
12:53 AM,28.0,8.1,43,30.11,10.0,NNE,13.8,24.2,N/A,,Mostly Cloudy,20,2012-10-28 08:53:00
1:53 AM,28.0,8.1,43,30.10,10.0,NNE,15.0,-,N/A,,Clear,20,2012-10-28 09:53:00
2:53 AM,28.0,9.0,45,30.09,10.0,NNE,17.3,25.3,N/A,,Clear,30,2012-10-28 10:53:00
3:53 AM,27.0,8.1,45,30.08,10.0,North,15.0,24.2,N/A,,Overcast,10,2012-10-28 11:53:00
4:53 AM,27.0,8.1,45,30.08,10.0,NNE,16.1,21.9,N/A,,Scattered Clouds,30,2012-10-28 12:53:00
5:53 AM,27.0,9.0,47,30.07,10.0,NNE,17.3,24.2,N/A,,Mostly Cloudy,30,2012-10-28 13:53:00
6:53 AM,27.0,8.1,45,30.07,10.0,NNE,13.8,20.7,N/A,,Overcast,30,2012-10-28 14:53:00
7:53 AM,27.0,8.1,45,30.07,10.0,NNE,16.1,21.9,N/A,,Mostly Cloudy,30,2012-10-28 15:53:00
8:53 AM,27.0,8.1,45,30.08,10.0,NNE,19.6,31.1,N/A,,Overcast,30,2012-10-28 16:53:00
9:53 AM,27.0,8.1,45,30.09,10.0,NNE,13.8,20.7,N/A,,Scattered Clouds,20,2012-10-28 17:53:00
10:53 AM,27.0,9.0,47,30.09,10.0,NNE,17.3,28.8,N/A,,Mostly Cloudy,30,2012-10-28 18:53:00
11:53 AM,30.0,8.1,40,30.09,10.0,NE,17.3,29.9,N/A,,Partly Cloudy,40,2012-10-28 19:53:00
12:53 PM,30.9,8.1,38,30.09,10.0,NE,18.4,24.2,N/A,,Clear,40,2012-10-28 20:53:00
1:53 PM,32.0,8.1,37,30.09,10.0,NE,18.4,25.3,N/A,,Scattered Clouds,40,2012-10-28 21:53:00
2:53 PM,32.0,8.1,37,30.09,10.0,NE,15.0,24.2,N/A,,Partly Cloudy,40,2012-10-28 22:53:00
3:53 PM,30.9,9.0,40,30.09,10.0,NNE,16.1,-,N/A,,Scattered Clouds,30,2012-10-28 23:53:00
4:53 PM,30.0,10.0,43,30.10,10.0,NNE,8.1,19.6,N/A,,Overcast,20,2012-10-29 00:53:00
5:53 PM,28.9,9.0,43,30.10,10.0,North,8.1,-,N/A,,Mostly Cloudy,10,2012-10-29 01:53:00
6:53 PM,28.9,10.0,45,30.11,10.0,North,9.2,-,N/A,,Overcast,10,2012-10-29 02:53:00
7:53 PM,28.9,10.0,45,30.12,10.0,North,8.1,-,N/A,,Mostly Cloudy,10,2012-10-29 03:53:00
8:53 PM,28.9,9.0,43,30.12,10.0,NNE,11.5,19.6,N/A,,Mostly Cloudy,20,2012-10-29 04:53:00
9:53 PM,28.9,8.1,41,30.13,10.0,NNE,11.5,18.4,N/A,,Mostly Cloudy,30,2012-10-29 05:53:00
10:53 PM,28.0,8.1,43,30.13,10.0,North,10.4,-,N/A,,Scattered Clouds,10,2012-10-29 06:53:00
11:53 PM,28.0,8.1,43,30.13,10.0,NNE,11.5,-,N/A,,Clear,20,2012-10-29 07:53:00